LEPA

Palma de Mallorca

Airport
ICAO code
LEPA
Summary
ICAO Region
EUR
ICAO Territory
Location

Palma de Mallorca, Baleariac Islands,

Coordinates
39° 33' 2" N , 2° 44' 5" E
KCC
Airport RI
Runway Misidentification
Metar
Observation
LEPA 071200Z 31002KT 9999 SCT022 BKN068 17/13 Q1013 NOSIG
Station
Palma De Mallorca / Son San Juan
Date/Time
2022-12-07 12:00:00
Wind direction
310°
Wind speed
02 kts
Lowest cloud amount
scattered clouds
Temperature
17°C
Dew point
13°C
Humidity
77%
QNH
1013 hPa
Weather condition
n/a

Description

International airport serving the island of Majorca.

Climatology

Dry-summer subtropical ”Mediterranean" climate (Köppen climate classification Csa) - characterized by hot, dry summers and mild winters. During the summer, subtropical high pressure cells dominate, making rainfall unlikely except for the occasional thunderstorm. In the winter, periodic storms bring rain.

Runways

Designator Length Width Surface Rops
06R/24L 3000 45 ASP Yes/Yes
06L/24R 3270 45 ASP Yes/Yes

Airport map

Aerial View

SKYbrary Partners:

Safety knowledge contributed by: